DW7898 Weather Reports


time (UTC)temp
F
wind
direction
speed
knots
gust
knots
rain 1hr
in
rain 24hr
in
rain mn
in
humidity
%
barometer
mb
20260504202356 61 259 4.3 11.3 0.01 0.06 0.02 76 1013.6
20260504201400 62 261 7.0 19.1 0.01 0.06 0.02 76 1013.5
20260504200400 63 253 7.8 12.2 0.01 0.06 0.02 83 1013.3
20260504195359 63 223 1.7 4.3 0.00 0.05 0.02 84 1012.7
20260504194358 63 219 0.9 3.5 0.00 0.05 0.02 83 1012.5
20260504193359 63 216 1.7 4.3 0.00 0.05 0.02 83 1012.4
20260504191359 63 220 3.5 4.3 0.00 0.05 0.02 81 1012.1
20260504190357 63 216 2.6 5.2 0.00 0.05 0.02 81 1012.1
20260504185413 63 211 2.6 4.3 0.00 0.05 0.02 81 1012.0
20260504184409 64 210 1.7 2.6 0.00 0.06 0.02 80 1011.8
20260504183405 64 210 2.6 4.3 0.00 0.06 0.02 79 1011.8
20260504182413 64 207 2.6 4.3 0.00 0.06 0.02 78 1011.6
20260504181409 64 181 0.9 5.2 0.00 0.06 0.02 78 1011.3
20260504180404 64 221 3.5 6.1 0.00 0.06 0.02 77 1011.3
20260504175358 65 229 1.7 4.3 0.00 0.06 0.02 77 1011.4
20260504174353 65 197 0.9 3.5 0.00 0.06 0.02 76 1011.3
20260504173424 65 116 0.9 3.5 0.00 0.06 0.02 76 1011.5
20260504172423 65 114 0.9 2.6 0.00 0.06 0.02 75 1011.6
20260504171413 65 110 0.0 1.7 0.00 0.06 0.02 76 1011.5
20260504170415 65 112 0.9 2.6 0.00 0.06 0.02 76 1011.6
20260504160415 64 127 2.6 4.3 0.01 0.06 0.02 77 1011.9
20260504150400 64 283 3.5 6.1 0.00 0.05 0.02 78 1012.4
20260504140352 66 214 5.2 10.4 0.00 0.05 0.02 71 1012.4
20260504130341 67 191 0.9 7.8 0.00 0.05 0.02 70 1012.6
20260504110339 68 114 3.5 9.6 0.00 0.03 0.00 67 1012.8
20260504100346 71 219 7.0 11.3 0.00 0.03 0.00 57 1012.9
20260504081354 66 183 1.7 6.1 0.00 0.03 0.00 70 1013.2
20260504080339 66 219 0.9 4.3 0.00 0.03 0.00 72 1013.3
20260504070348 62 245 0.0 3.5 0.00 0.03 0.00 89 1013.9
20260504050335 60 9 0.0 0.9 0.00 0.03 0.00 94 1013.9
20260504045354 60 9 0.0 0.9 0.00 0.03 0.00 94 1014.0
20260504044356 60 9 0.9 2.6 0.00 0.03 0.00 94 1013.9
20260504043336 60 9 1.7 2.6 0.00 0.03 0.00 93 1014.0
20260504042339 60 14 0.0 2.6 0.00 0.03 0.00 94 1014.0
20260504041348 60 15 0.0 1.7 0.00 0.03 0.00 93 1014.0
20260504040337 60 15 0.9 1.7 0.00 0.03 0.00 93 1014.0
20260504035338 60 15 0.9 2.6 0.00 0.03 0.00 93 1014.1
20260504034337 60 29 0.0 2.6 0.00 0.03 0.00 93 1014.1
20260504033345 60 29 0.9 2.6 0.00 0.03 0.00 93 1014.1
20260504032347 60 27 0.0 0.0 0.00 0.03 0.00 93 1014.3
20260504031354 60 27 0.0 0.0 0.00 0.03 0.00 93 1014.5
20260504030339 60 27 0.0 0.0 0.00 0.03 0.00 93 1014.5
20260504025342 60 27 0.0 0.0 0.00 0.03 0.00 93 1014.4
20260504024343 60 27 0.0 0.0 0.00 0.03 0.00 93 1014.3
20260504023347 60 27 0.0 0.0 0.00 0.03 0.00 93 1014.1
20260504022341 60 27 0.0 0.0 0.00 0.03 0.00 92 1014.2
20260504021347 60 27 0.0 0.0 0.00 0.03 0.00 92 1014.3
20260504020349 60 27 0.0 0.0 0.00 0.03 0.00 92 1014.3
20260504015350 60 27 0.0 0.0 0.00 0.03 0.00 93 1014.3
20260504014353 60 27 0.0 0.0 0.00 0.03 0.00 92 1014.6
20260504013354 60 27 0.0 0.0 0.00 0.03 0.00 92 1014.7
20260504012351 60 27 0.0 0.0 0.00 0.03 0.00 92 1014.7
20260504011357 60 27 0.0 0.0 0.00 0.03 0.00 92 1014.8
20260504010338 60 27 0.0 0.0 0.00 0.03 0.00 92 1014.8
20260504005356 60 27 0.0 0.0 0.00 0.03 0.00 92 1015.0
20260504004355 60 27 0.0 0.0 0.00 0.03 0.00 92 1015.1
20260504003337 60 27 0.0 0.0 0.00 0.03 0.00 92 1015.2
20260504002337 59 27 0.0 1.7 0.00 0.03 0.00 92 1015.3
20260504001337 59 27 0.9 3.5 0.00 0.03 0.00 91 1015.2
20260504000336 60 31 0.0 0.0 0.00 0.03 0.00 92 1015.2
20260503235356 60 34 0.0 0.0 0.00 0.03 0.00 92 1015.1
20260503234338 60 34 0.0 0.0 0.00 0.03 0.00 92 1015.4
20260503233341 60 34 0.0 0.0 0.00 0.03 0.00 91 1015.5
20260503232354 59 34 0.0 1.7 0.00 0.03 0.00 91 1015.4
20260503231353 59 34 0.9 2.6 0.00 0.03 0.00 91 1015.4
20260503230339 60 34 0.9 1.7 0.00 0.03 0.00 91 1015.5
20260503225358 59 34 1.7 3.5 0.00 0.03 0.00 90 1015.5
20260503224358 60 32 2.6 3.5 0.00 0.03 0.00 90 1015.5
20260503223358 59 26 1.7 3.5 0.00 0.03 0.00 89 1015.6
20260503222354 59 33 1.7 4.3 0.00 0.03 0.00 89 1015.7
20260503221339 59 11 2.6 6.1 0.00 0.03 0.00 89 1015.8
20260503220343 59 26 2.6 6.1 0.00 0.03 0.00 90 1015.6
20260503215343 60 33 3.5 6.1 0.00 0.03 0.03 90 1015.7
20260503214350 60 24 2.6 4.3 0.00 0.03 0.03 89 1015.9
20260503213356 60 38 2.6 5.2 0.00 0.03 0.03 89 1015.8
20260503212351 60 39 1.7 4.3 0.02 0.03 0.03 87 1015.9
20260503211351 60 34 0.9 3.5 0.02 0.03 0.03 87 1015.9
20260503210355 60 35 1.7 6.1 0.02 0.03 0.03 86 1016.0
20260503205357 60 51 1.7 4.3 0.02 0.03 0.02 85 1015.9
20260503204355 60 23 2.6 4.3 0.02 0.03 0.02 83 1016.0
20260503203359 60 101 0.0 3.5 0.02 0.03 0.02 82 1016.2